TimeEDT,TemperatureF,Dew PointF,Humidity,Sea Level PressureIn,VisibilityMPH,Wind Direction,Wind SpeedMPH,Gust SpeedMPH,PrecipitationIn,Events,Conditions,WindDirDegrees,DateUTC
12:00 AM,61.3,56.5,84,30.03,-9999.0,ENE,6.9,-,N/A,,Unknown,70,2012-10-25 04:00:00
1:00 AM,61.7,55.9,81,30.02,-9999.0,East,2.3,-,N/A,,Unknown,100,2012-10-25 05:00:00
2:00 AM,62,56,74,30.01,,SSE,2.3,,,,,160,2012-10-25 06:00:00
2:00 AM,61.7,55.8,81,30.01,-9999.0,SSE,2.3,-,N/A,,Unknown,160,2012-10-25 06:00:00
3:00 AM,61.2,55.9,83,30.01,-9999.0,South,6.9,-,N/A,,Unknown,170,2012-10-25 07:00:00
4:00 AM,61.7,55.4,80,30.01,-9999.0,SSE,10.4,-,N/A,,Unknown,160,2012-10-25 08:00:00
5:00 AM,60.6,55.6,83,30.01,-9999.0,South,9.2,-,N/A,,Unknown,170,2012-10-25 09:00:00
6:00 AM,60.8,55.4,82,30.02,-9999.0,SSE,9.2,-,N/A,,Unknown,160,2012-10-25 10:00:00
7:00 AM,60.4,55.4,83,30.02,-9999.0,SSE,9.2,-,N/A,,Unknown,160,2012-10-25 11:00:00
8:00 AM,61,55,73,30.02,,South,11.5,,,,,170,2012-10-25 12:00:00
8:00 AM,60.8,54.7,80,30.02,-9999.0,South,11.5,-,N/A,,Unknown,170,2012-10-25 12:00:00
10:00 AM,61.5,54.7,78,30.03,-9999.0,South,13.8,-,N/A,,Unknown,170,2012-10-25 14:00:00
11:00 AM,61.9,54.7,77,30.03,-9999.0,South,13.8,-,N/A,,Unknown,170,2012-10-25 15:00:00
12:00 PM,62.1,54.9,77,30.03,-9999.0,South,10.4,-,N/A,,Unknown,170,2012-10-25 16:00:00
1:00 PM,63.0,55.4,76,30.00,-9999.0,South,10.4,-,N/A,,Unknown,170,2012-10-25 17:00:00
2:00 PM,64,54,63,29.97,,SSE,9.2,,,,,160,2012-10-25 18:00:00
3:00 PM,63.5,55.4,75,29.95,-9999.0,SSE,5.8,-,N/A,,Unknown,160,2012-10-25 19:00:00
4:00 PM,64.0,56.1,75,29.94,-9999.0,SSE,4.6,-,N/A,,Unknown,150,2012-10-25 20:00:00
5:00 PM,63.0,55.8,77,29.92,-9999.0,SE,5.8,-,N/A,,Unknown,140,2012-10-25 21:00:00
6:00 PM,63.0,55.9,78,29.92,-9999.0,SE,6.9,-,N/A,,Unknown,140,2012-10-25 22:00:00
7:00 PM,63.5,55.2,74,29.91,-9999.0,SSE,9.2,-,N/A,,Unknown,150,2012-10-25 23:00:00
8:00 PM,65,54,60,29.91,,South,11.5,,,,,170,2012-10-26 00:00:00
8:00 PM,64.6,54.5,70,29.91,-9999.0,South,11.5,-,N/A,,Unknown,170,2012-10-26 00:00:00
9:00 PM,64.2,54.3,70,29.90,-9999.0,SSE,10.4,-,N/A,,Unknown,160,2012-10-26 01:00:00
10:00 PM,63.9,54.5,72,29.91,-9999.0,South,12.7,-,N/A,,Unknown,170,2012-10-26 02:00:00
11:00 PM,64.9,53.6,67,29.91,-9999.0,South,13.8,-,N/A,,Unknown,170,2012-10-26 03:00:00